[[{"header":{"parameterUnit":"m.s-1","parameterCategory":1,"la1":30.2991,"la2":30.254,"lo1":-89.0895,"lo2":-89.0444,"dy":0.0017,"dx":0.0017,"nx":28,"ny":28,"refTime":"2025-09-01T09:00:00:Z","depth":0,"parameterNumber":2,"parameterNumberName":"U-component_of_WINDS"},"data":[0,0,0,0,0,0,0,0,0,0,0,0,0,0,0,0,0,0,0,0,0,0,0,0,0,0,0,0,0,0,0,0,0,0,0,0,0,0,0,0,0,0,0,0,0,0,0,0,0,0,0,0,0,0,0,0,0,0,-2.4426,-2.4426,0,-2.4414,-2.4414,-2.4414,-2.4291,-2.4288,-2.4285,-2.4282,-2.4273,-2.4276,-2.4279,0,0,0,0,0,0,0,0,0,0,0,0,0,-2.4344,-2.4346,-2.4426,-2.4426,-2.4426,-2.4414,-2.4414,-2.4414,-2.4292,-2.4288,-2.4284,-2.428,-2.4273,-2.4276,-2.4279,0,0,0,0,0,0,0,0,0,0,0,0,0,-2.4361,-2.4346,-2.4426,-2.4363,-2.4357,-2.4414,-2.4414,-2.4414,-2.4292,-2.4288,-2.4283,-2.4279,-2.4272,-2.4275,-2.4279,-2.4397,0,0,-2.4292,-2.4293,0,0,0,0,0,0,0,0,-2.436,-2.4364,-2.4372,-2.4367,-2.4361,-2.4349,-2.4382,-2.4408,-2.4293,-2.4317,-2.4282,-2.4276,-2.4303,-2.4304,-2.4312,-2.4396,-2.4396,-2.4292,-2.4294,-2.4296,-2.4297,0,0,0,0,0,0,0,-2.4359,-2.4364,-2.4421,-2.4373,-2.4366,-2.4336,-2.4333,-2.4386,-2.4336,-2.4315,-2.4306,-2.4306,-2.4299,-2.4308,-2.4311,-2.4396,-2.4292,-2.4295,-2.4298,-2.4299,-2.4573,-2.4578,0,0,0,0,0,0,-2.4366,-2.4363,-2.4422,-2.4421,-2.4349,-2.4341,-2.4338,-2.4358,-2.4335,-2.4327,-2.431,-2.43,-2.4304,-2.4306,-2.431,-2.4444,-2.4296,-2.43,-2.4302,-2.4569,-2.4574,-2.458,0,0,0,0,0,0,-2.4365,-2.4372,-2.4422,-2.439,-2.4394,-2.4347,-2.4371,-2.436,-2.4369,-2.4331,-2.4322,-2.4329,-2.43,-2.4304,-2.4375,-2.4442,-2.4302,-2.4305,-2.4563,-2.457,-2.4577,-2.4715,0,0,0,0,0,0,-2.4363,-2.4373,-2.4417,-2.4392,-2.4396,-2.4488,-2.4375,-2.4363,-2.4376,-2.4363,-2.4347,-2.434,-2.4297,-2.437,-2.4379,-2.4445,-2.4308,-2.4557,-2.4566,-2.4575,-2.4704,-2.4726,-2.4744,0,0,0,0,0,-2.436,-2.4457,-2.442,-2.4427,-2.445,-2.4492,-2.4494,-2.4442,-2.4382,-2.4426,-2.4401,-2.434,-2.4433,-2.4378,-2.4388,-2.4456,-2.4552,-2.4563,-2.4574,-2.4695,-2.4721,-2.4744,0,0,0,0,0,0,-2.4494,-2.4453,-2.4411,-2.4502,-2.4501,-2.4471,-2.4525,-2.4473,-2.449,-2.4477,-2.4413,-2.441,-2.449,-2.448,-2.4419,-2.4567,-2.4482,-2.4495,-2.4571,-2.4595,-2.4615,-2.4616,-2.4312,0,0,0,0,0,-2.4533,-2.457,-2.4533,-2.4617,-2.4618,-2.4572,-2.4588,-2.4548,-2.4545,-2.4544,-2.4524,-2.4525,-2.4553,-2.4574,-2.4599,-2.4702,-2.4696,-2.4753,-2.4773,-2.479,-2.4802,-2.4854,-2.4879,-2.4616,-2.4616,-2.4616,0,0,-2.4617,-2.4599,-2.4626,-2.4643,-2.4638,-2.4677,-2.4573,-2.4619,-2.4648,-2.4552,-2.4616,-2.4602,-2.4598,-2.4685,-2.4722,-2.4679,-2.4873,-2.4804,-2.4818,-2.4821,-2.4868,-2.4893,-2.4915,-2.4623,-2.4622,-2.4621,0,0,-2.4787,-2.4778,-2.4846,-2.4842,-2.4834,-2.4802,-2.4818,-2.4795,-2.4781,-2.4845,-2.4773,-2.4806,-2.4858,-2.4857,-2.4863,-2.5031,-2.4976,-2.5042,-2.5147,-2.5198,-2.5219,-2.5237,-2.5296,-2.5318,-2.5054,-2.5054,-2.5054,0,-2.4892,-2.4947,-2.4888,-2.4938,-2.4947,-2.486,-2.4928,-2.4927,-2.4929,-2.4937,-2.4888,-2.4949,-2.4941,-2.5025,-2.5066,-2.5074,-2.509,-2.5043,-2.5221,-2.5238,-2.5254,-2.5309,-2.5332,-2.5062,-2.5061,-2.506,-2.506,0,-2.5075,-2.5115,-2.5171,-2.5171,-2.5187,-2.5247,-2.5196,-2.5219,-2.5177,-2.515,-2.5215,-2.5201,-2.522,-2.5238,-2.5198,-2.5316,-2.5289,-2.5232,-2.5145,-2.5288,-2.5339,-2.5359,-2.5074,-2.5071,-2.5068,-2.5066,0,0,-2.5331,-2.5296,-2.5318,-2.5316,-2.5299,-2.5329,-2.5384,-2.5401,-2.5421,-2.5425,-2.5468,-2.5513,-2.5459,-2.5466,-2.5426,-2.5471,-2.5602,-2.5407,-2.5406,-2.5443,-2.573,-2.5772,-2.5798,-2.5565,-2.5569,-2.5572,-2.573,0,-2.5495,-2.5584,-2.5531,-2.563,-2.5664,-2.5581,-2.5628,-2.5624,-2.56,-2.5626,-2.56,-2.5632,-2.5559,-2.5562,-2.5603,-2.5578,-2.5659,-2.5566,-2.5605,-2.5607,-2.5608,-2.5824,-2.587,-2.602,-2.5749,-2.5752,-2.5755,0,-2.5697,-2.5706,-2.5808,-2.5781,-2.5794,-2.5838,-2.5848,-2.5874,-2.5867,-2.5846,-2.5853,-2.5801,-2.5853,-2.5767,-2.5838,-2.5775,-2.5788,-2.5778,-2.5783,-2.5784,-2.569,-2.5831,-2.6066,-2.6088,-2.5786,-2.5783,-2.5781,0,-2.5872,-2.591,-2.5974,-2.5975,-2.5947,-2.598,-2.597,-2.5957,-2.597,-2.5979,-2.5987,-2.6003,-2.6012,-2.6026,-2.5979,-2.5921,-2.6055,-2.5966,-2.6039,-2.6041,-2.6071,-2.607,-2.6311,-2.6081,-2.6081,-2.6081,-2.608,0,-2.6059,-2.6124,-2.6051,-2.6091,-2.6161,-2.6099,-2.617,-2.6152,-2.6141,-2.6176,-2.6105,-2.614,-2.6076,-2.6104,-2.6069,-2.6131,-2.6136,-2.6121,-2.611,-2.6127,-2.6129,-2.6134,-2.6122,-2.6086,-2.6085,-2.6084,-2.6083,0,-2.6265,-2.622,-2.6284,-2.6251,-2.6244,-2.6297,-2.6269,-2.6305,-2.6275,-2.632,-2.6327,-2.6281,-2.631,-2.6265,-2.629,-2.6265,-2.6352,-2.6326,-2.6354,-2.6346,-2.6421,-2.6414,-2.6674,-2.6704,-2.6456,-2.6459,-2.6461,0,-2.6387,-2.6435,-2.6406,-2.6423,-2.6416,-2.6445,-2.6457,-2.6398,-2.6413,-2.6407,-2.6443,-2.6466,-2.6481,-2.6531,-2.6501,-2.6519,-2.6493,-2.6582,-2.6495,-2.6509,-2.6492,-2.649,-2.6494,-2.66,-2.6603,-2.6606,-2.6608,0,-2.6608,-2.6582,-2.6601,-2.6612,-2.6627,-2.6633,-2.6635,-2.6653,-2.6591,-2.6611,-2.6639,-2.6651,-2.6674,-2.6697,-2.6707,-2.6698,-2.6643,-2.6635,-2.6653,-2.667,-2.6683,-2.6675,-2.6402,-2.6629,-2.6627,-2.6626,-2.6625,-2.6624,-2.6775,-2.6812,-2.6797,-2.6819,-2.6813,-2.6815,-2.6846,-2.6819,-2.6841,-2.6854,-2.6818,-2.6854,-2.6844,-2.6851,-2.6847,-2.6875,-2.6836,-2.6862,-2.6868,-2.6875,-2.6886,-2.6679,-2.6877,-2.6876,-2.6876,-2.6875,-2.6874,0,-2.6991,-2.6976,-2.6997,-2.6999,-2.7017,-2.6961,-2.6959,-2.6978,-2.701,-2.7004,-2.7019,-2.7051,-2.7072,-2.7043,-2.706,-2.7087,-2.7062,-2.7094,-2.7091,-2.7089,-2.6921,-2.6903,-2.7113,-2.7113,-2.7113,-2.7113,-2.7113,-2.7113,-2.7105,-2.7164,-2.7136,-2.7191,-2.7176,-2.7209,-2.7212,-2.7214,-2.7208,-2.7246,-2.7262,-2.7242,-2.7227,-2.7241,-2.7259,-2.725,-2.7259,-2.7299,-2.7281,-2.7125,-2.7101,-2.7079,-2.7062,-2.7302,-2.7302,-2.7446,-2.7447,-2.7449]},{"header":{"parameterUnit":"m.s-1","parameterCategory":1,"la1":30.2991,"la2":30.254,"lo1":-89.0895,"lo2":-89.0444,"dy":0.0017,"dx":0.0017,"nx":28,"ny":28,"refTime":"2025-09-01T09:00:00:Z","depth":0,"parameterNumber":3,"parameterNumberName":"V-component_of_WINDS"},"data":[0,0,0,0,0,0,0,0,0,0,0,0,0,0,0,0,0,0,0,0,0,0,0,0,0,0,0,0,0,0,0,0,0,0,0,0,0,0,0,0,0,0,0,0,0,0,0,0,0,0,0,0,0,0,0,0,0,0,-1.0652,-1.0653,0,-1.0765,-1.0766,-1.0767,-1.0822,-1.0822,-1.0822,-1.0822,-1.0938,-1.0941,-1.0944,0,0,0,0,0,0,0,0,0,0,0,0,0,-1.0482,-1.0485,-1.0651,-1.0653,-1.0654,-1.0764,-1.0766,-1.0767,-1.0822,-1.0822,-1.0822,-1.0822,-1.0937,-1.0941,-1.0944,0,0,0,0,0,0,0,0,0,0,0,0,0,-1.0571,-1.0486,-1.0651,-1.0695,-1.07,-1.0764,-1.0766,-1.0768,-1.0822,-1.0822,-1.0822,-1.0822,-1.0936,-1.094,-1.0945,-1.0974,0,0,-1.0959,-1.0961,0,0,0,0,0,0,0,0,-1.0566,-1.0578,-1.0687,-1.0692,-1.0698,-1.0779,-1.0749,-1.0837,-1.0822,-1.0776,-1.0822,-1.0822,-1.0885,-1.0894,-1.0915,-1.0979,-1.0984,-1.096,-1.0962,-1.0964,-1.0966,0,0,0,0,0,0,0,-1.056,-1.0573,-1.0696,-1.0689,-1.0695,-1.0709,-1.0721,-1.0766,-1.0829,-1.078,-1.0784,-1.0797,-1.0888,-1.0911,-1.0918,-1.0986,-1.0959,-1.0964,-1.0966,-1.0968,-1.1078,-1.1078,0,0,0,0,0,0,-1.0547,-1.0567,-1.0693,-1.07,-1.0631,-1.0712,-1.0726,-1.0753,-1.0829,-1.0841,-1.0797,-1.0799,-1.0903,-1.0913,-1.0923,-1.0961,-1.0964,-1.0969,-1.0971,-1.1078,-1.1078,-1.1078,0,0,0,0,0,0,-1.0543,-1.0557,-1.0688,-1.0635,-1.0652,-1.0715,-1.0745,-1.0755,-1.0778,-1.0842,-1.0853,-1.0808,-1.0903,-1.0916,-1.096,-1.0966,-1.0971,-1.0975,-1.1078,-1.1078,-1.1078,-1.1038,0,0,0,0,0,0,-1.0538,-1.0556,-1.0568,-1.0635,-1.0655,-1.0724,-1.0745,-1.0758,-1.0786,-1.079,-1.0855,-1.0866,-1.0904,-1.0953,-1.0965,-1.0972,-1.0979,-1.1077,-1.1078,-1.1078,-1.1039,-1.1037,-1.1035,0,0,0,0,0,-1.0532,-1.0552,-1.0568,-1.0583,-1.0672,-1.0724,-1.0736,-1.0779,-1.0786,-1.0798,-1.0839,-1.0864,-1.0963,-1.0957,-1.0971,-1.098,-1.1077,-1.1078,-1.1078,-1.104,-1.1037,-1.1035,0,0,0,0,0,0,-1.0485,-1.0562,-1.058,-1.0624,-1.0667,-1.0734,-1.0751,-1.0775,-1.0818,-1.082,-1.0871,-1.0886,-1.0925,-1.0957,-1.0949,-1.1011,-1.1023,-1.1026,-1.0989,-1.0987,-1.0984,-1.0976,-1.0982,0,0,0,0,0,-1.048,-1.0517,-1.0582,-1.0613,-1.0634,-1.0688,-1.0713,-1.0742,-1.079,-1.0808,-1.0852,-1.0897,-1.0938,-1.0964,-1.1005,-1.1043,-1.1058,-1.1056,-1.1054,-1.1052,-1.1054,-1.1075,-1.1075,-1.1079,-1.1079,-1.1079,0,0,-1.047,-1.0516,-1.0536,-1.0605,-1.0642,-1.0679,-1.0704,-1.0742,-1.0769,-1.0814,-1.0859,-1.0892,-1.0945,-1.0986,-1.1006,-1.1014,-1.1055,-1.1052,-1.105,-1.1053,-1.1075,-1.1075,-1.1074,-1.1079,-1.1079,-1.1079,0,0,-1.047,-1.0509,-1.0539,-1.0575,-1.063,-1.0666,-1.0673,-1.0736,-1.076,-1.0805,-1.0839,-1.0872,-1.0942,-1.0978,-1.1005,-1.1016,-1.104,-1.1028,-1.1017,-1.1037,-1.1036,-1.1036,-1.104,-1.104,-1.103,-1.103,-1.103,0,-1.045,-1.0506,-1.0551,-1.0587,-1.0615,-1.0657,-1.0687,-1.072,-1.0787,-1.0805,-1.0813,-1.09,-1.0939,-1.0988,-1.099,-1.1011,-1.102,-1.1021,-1.1033,-1.1033,-1.1034,-1.1037,-1.1039,-1.1028,-1.1028,-1.1028,-1.1028,0,-1.0479,-1.0517,-1.0535,-1.0597,-1.0628,-1.066,-1.0709,-1.0735,-1.0761,-1.0795,-1.084,-1.0887,-1.0938,-1.0952,-1.0978,-1.1005,-1.1007,-1.1023,-1.1036,-1.1031,-1.1035,-1.1037,-1.1025,-1.1026,-1.1026,-1.1027,0,0,-1.0455,-1.0539,-1.0545,-1.0573,-1.0636,-1.0667,-1.07,-1.075,-1.077,-1.0814,-1.0843,-1.09,-1.0915,-1.0946,-1.0976,-1.0993,-1.0997,-1.1007,-1.1009,-1.1003,-1.1028,-1.1016,-1.1017,-1.1014,-1.1014,-1.1014,-1.1024,0,-1.0463,-1.0526,-1.0566,-1.0613,-1.0648,-1.0687,-1.0716,-1.0758,-1.079,-1.0824,-1.086,-1.09,-1.0916,-1.0935,-1.0954,-1.0993,-1.1003,-1.0993,-1.1041,-1.1042,-1.1027,-1.1019,-1.1007,-1.1014,-1.1026,-1.1026,-1.1026,0,-1.0482,-1.0523,-1.0573,-1.0631,-1.0647,-1.0673,-1.0721,-1.0753,-1.08,-1.0823,-1.0856,-1.0886,-1.0923,-1.0931,-1.0982,-1.0974,-1.0996,-1.1017,-1.1019,-1.1025,-1.1034,-1.1025,-1.1017,-1.1018,-1.1029,-1.1029,-1.1029,0,-1.0458,-1.0527,-1.0565,-1.0588,-1.0656,-1.0673,-1.0702,-1.075,-1.0776,-1.0817,-1.0835,-1.088,-1.0905,-1.0939,-1.098,-1.0983,-1.1026,-1.1038,-1.1045,-1.1044,-1.1053,-1.1052,-1.1047,-1.1067,-1.1067,-1.1067,-1.1067,0,-1.0464,-1.0492,-1.0555,-1.0579,-1.0612,-1.0657,-1.0688,-1.072,-1.0762,-1.0792,-1.0828,-1.0855,-1.0908,-1.0942,-1.0974,-1.101,-1.1021,-1.104,-1.1048,-1.1037,-1.1034,-1.1052,-1.1053,-1.1067,-1.1067,-1.1067,-1.1067,0,-1.0443,-1.0487,-1.0531,-1.0591,-1.0607,-1.0628,-1.068,-1.0704,-1.0737,-1.0775,-1.0786,-1.0839,-1.088,-1.0924,-1.0981,-1.1002,-1.1037,-1.1049,-1.1021,-1.1025,-1.1029,-1.1028,-1.1036,-1.1039,-1.1056,-1.1056,-1.1056,0,-1.0444,-1.0467,-1.0529,-1.0552,-1.058,-1.0616,-1.0643,-1.0687,-1.0714,-1.0768,-1.0785,-1.0829,-1.0866,-1.093,-1.0973,-1.1016,-1.1029,-1.1029,-1.1036,-1.1023,-1.1028,-1.1026,-1.1028,-1.1027,-1.1026,-1.1026,-1.1026,0,-1.0441,-1.046,-1.0498,-1.0542,-1.0573,-1.061,-1.0648,-1.0664,-1.0716,-1.0744,-1.0786,-1.0815,-1.0871,-1.0914,-1.0962,-1.0992,-1.1017,-1.1023,-1.1027,-1.1015,-1.0998,-1.1007,-1.1015,-1.1023,-1.1023,-1.1023,-1.1023,-1.1023,-1.0431,-1.0453,-1.0499,-1.0539,-1.0572,-1.0607,-1.0632,-1.0668,-1.0704,-1.0753,-1.0777,-1.0818,-1.0864,-1.093,-1.0959,-1.0992,-1.1,-1.1005,-1.1007,-1.1007,-1.1004,-1.0992,-1.1001,-1.1001,-1.1001,-1.1001,-1.1001,0,-1.0429,-1.0461,-1.0497,-1.0548,-1.0579,-1.06,-1.0643,-1.0667,-1.0703,-1.0743,-1.0778,-1.0826,-1.0867,-1.0912,-1.0956,-1.0973,-1.0986,-1.0983,-1.0982,-1.0989,-1.0995,-1.0987,-1.0972,-1.0972,-1.0972,-1.0972,-1.0972,-1.0972,-1.0432,-1.0469,-1.0494,-1.0547,-1.0578,-1.0619,-1.0642,-1.0673,-1.0705,-1.0756,-1.079,-1.0819,-1.0861,-1.0907,-1.0945,-1.0958,-1.0972,-1.0966,-1.0981,-1.0986,-1.0988,-1.0991,-1.0984,-1.0968,-1.0968,-1.0973,-1.0973,-1.0973]}]]